[[{"header":{"parameterUnit":"m.s-1","parameterCategory":1,"la1":30.2991,"la2":30.254,"lo1":-89.0895,"lo2":-89.0444,"dy":0.0017,"dx":0.0017,"nx":28,"ny":28,"refTime":"2024-07-25T21:00:00:Z","depth":0,"parameterNumber":2,"parameterNumberName":"U-component_of_WINDS"},"data":[0,0,0,0,0,0,0,0,0,0,0,0,0,0,0,0,0,0,0,0,0,0,0,0,0,0,0,0,0,0,0,0,0,0,0,0,0,0,0,0,0,0,0,0,0,0,0,0,0,0,0,0,0,0,0,0,0,0,-1.8617,-1.8616,0,-1.8547,-1.8546,-1.8545,-1.8475,-1.8474,-1.8473,-1.8472,-1.8397,-1.8396,-1.8394,0,0,0,0,0,0,0,0,0,0,0,0,0,-1.869,-1.8689,-1.8617,-1.8616,-1.8616,-1.8547,-1.8546,-1.8545,-1.8475,-1.8474,-1.8473,-1.8472,-1.8397,-1.8396,-1.8394,0,0,0,0,0,0,0,0,0,0,0,0,0,-1.8643,-1.8689,-1.8617,-1.8572,-1.8568,-1.8547,-1.8546,-1.8545,-1.8475,-1.8474,-1.8472,-1.8471,-1.8398,-1.8396,-1.8394,-1.8411,0,0,-1.8389,-1.8388,0,0,0,0,0,0,0,0,-1.8646,-1.864,-1.858,-1.8576,-1.857,-1.8518,-1.8544,-1.85,-1.8476,-1.851,-1.8472,-1.8471,-1.8438,-1.8433,-1.8423,-1.8408,-1.8404,-1.8389,-1.8388,-1.8387,-1.8386,0,0,0,0,0,0,0,-1.8649,-1.8643,-1.8589,-1.8579,-1.8573,-1.8555,-1.8547,-1.8535,-1.8483,-1.8507,-1.8502,-1.8495,-1.8435,-1.8424,-1.842,-1.8403,-1.8389,-1.8387,-1.8386,-1.8386,-1.8399,-1.84,0,0,0,0,0,0,-1.8659,-1.8646,-1.8591,-1.8587,-1.8605,-1.8555,-1.8546,-1.8536,-1.8483,-1.8473,-1.8496,-1.8492,-1.8428,-1.8422,-1.8417,-1.8433,-1.8387,-1.8385,-1.8384,-1.8398,-1.8399,-1.8401,0,0,0,0,0,0,-1.8661,-1.8655,-1.8594,-1.8615,-1.8606,-1.8555,-1.8545,-1.8536,-1.8525,-1.8474,-1.8464,-1.8495,-1.8427,-1.842,-1.8414,-1.843,-1.8385,-1.8383,-1.8396,-1.8398,-1.84,-1.8466,0,0,0,0,0,0,-1.8664,-1.8656,-1.8662,-1.8616,-1.8605,-1.8592,-1.8546,-1.8535,-1.8522,-1.8516,-1.847,-1.8461,-1.8425,-1.8417,-1.8412,-1.8427,-1.8382,-1.8394,-1.8397,-1.84,-1.8462,-1.847,-1.8477,0,0,0,0,0,-1.8666,-1.8683,-1.8663,-1.8657,-1.8612,-1.8593,-1.8587,-1.8546,-1.8524,-1.8529,-1.8497,-1.8463,-1.843,-1.8416,-1.8411,-1.8425,-1.8393,-1.8396,-1.8399,-1.8459,-1.8469,-1.8477,0,0,0,0,0,0,-1.8731,-1.8676,-1.8653,-1.8655,-1.863,-1.8582,-1.8587,-1.8557,-1.8536,-1.8531,-1.848,-1.8471,-1.847,-1.8447,-1.8434,-1.8439,-1.8406,-1.8409,-1.8454,-1.8463,-1.847,-1.8474,-1.838,0,0,0,0,0,-1.8746,-1.8736,-1.8688,-1.8695,-1.8683,-1.8638,-1.8628,-1.8599,-1.857,-1.8558,-1.8525,-1.8498,-1.8481,-1.8471,-1.8452,-1.8459,-1.8448,-1.8467,-1.8474,-1.848,-1.8482,-1.8484,-1.8492,-1.8411,-1.8411,-1.8411,0,0,-1.8775,-1.8744,-1.8741,-1.8707,-1.8683,-1.8674,-1.8629,-1.862,-1.8612,-1.8556,-1.8548,-1.8524,-1.849,-1.8491,-1.8489,-1.8471,-1.8503,-1.8484,-1.849,-1.8488,-1.8488,-1.8496,-1.8503,-1.8413,-1.8413,-1.8413,0,0,-1.8824,-1.88,-1.8803,-1.8781,-1.8747,-1.8717,-1.8718,-1.8675,-1.8657,-1.8649,-1.8607,-1.8597,-1.8569,-1.8547,-1.8532,-1.8575,-1.8543,-1.8571,-1.8609,-1.8611,-1.8618,-1.8623,-1.8638,-1.8644,-1.8573,-1.8574,-1.8574,0,-1.8865,-1.8849,-1.8808,-1.8802,-1.8789,-1.874,-1.8742,-1.8723,-1.8684,-1.8675,-1.8657,-1.8622,-1.8595,-1.859,-1.8601,-1.8591,-1.859,-1.8575,-1.862,-1.8625,-1.863,-1.8643,-1.8649,-1.8577,-1.8577,-1.8576,-1.8576,0,-1.8901,-1.8891,-1.8898,-1.8863,-1.885,-1.8849,-1.8807,-1.8799,-1.8772,-1.8744,-1.8736,-1.8704,-1.8678,-1.8675,-1.8648,-1.8666,-1.8656,-1.863,-1.8596,-1.8642,-1.8653,-1.8658,-1.8582,-1.8581,-1.858,-1.8579,0,0,-1.8985,-1.893,-1.8933,-1.8917,-1.8878,-1.8869,-1.8866,-1.8842,-1.8836,-1.8812,-1.8807,-1.8786,-1.8762,-1.8745,-1.8716,-1.8718,-1.8754,-1.8691,-1.869,-1.8703,-1.8772,-1.8791,-1.8798,-1.8734,-1.8735,-1.8735,-1.8775,0,-1.9027,-1.9018,-1.8982,-1.8984,-1.8974,-1.8929,-1.8926,-1.8901,-1.8876,-1.8863,-1.8835,-1.8821,-1.879,-1.878,-1.8781,-1.875,-1.8767,-1.8747,-1.8728,-1.8728,-1.8736,-1.8804,-1.8824,-1.8862,-1.8779,-1.878,-1.878,0,-1.9072,-1.9053,-1.9055,-1.9016,-1.9011,-1.9009,-1.8985,-1.8974,-1.8946,-1.8927,-1.891,-1.8877,-1.8871,-1.8841,-1.8831,-1.8818,-1.8809,-1.8793,-1.8793,-1.8788,-1.8755,-1.8799,-1.8874,-1.8879,-1.8787,-1.8787,-1.8786,0,-1.9133,-1.9107,-1.9105,-1.9093,-1.9048,-1.9048,-1.9029,-1.8999,-1.8988,-1.8967,-1.8959,-1.8938,-1.8926,-1.891,-1.8873,-1.8855,-1.8867,-1.8834,-1.8851,-1.8852,-1.8853,-1.8853,-1.8925,-1.8851,-1.885,-1.885,-1.885,0,-1.9181,-1.9184,-1.9131,-1.913,-1.9131,-1.909,-1.9093,-1.907,-1.9044,-1.9037,-1.8997,-1.8991,-1.8942,-1.8931,-1.8902,-1.8898,-1.8893,-1.8877,-1.8869,-1.888,-1.8882,-1.8871,-1.8867,-1.8852,-1.8852,-1.8851,-1.8851,0,-1.9248,-1.9213,-1.9207,-1.9167,-1.9157,-1.916,-1.9124,-1.9121,-1.9095,-1.9086,-1.9082,-1.904,-1.9024,-1.8986,-1.896,-1.8941,-1.8944,-1.893,-1.8954,-1.8949,-1.8967,-1.8965,-1.9033,-1.904,-1.8963,-1.8963,-1.8964,0,-1.928,-1.9281,-1.9241,-1.9234,-1.9218,-1.9207,-1.9195,-1.9155,-1.9145,-1.9114,-1.9114,-1.9096,-1.9079,-1.9057,-1.9023,-1.9004,-1.8988,-1.9014,-1.8985,-1.8996,-1.8987,-1.8987,-1.8986,-1.9019,-1.902,-1.9021,-1.9022,0,-1.934,-1.9324,-1.931,-1.929,-1.9278,-1.9261,-1.9241,-1.9237,-1.9192,-1.9183,-1.9167,-1.9155,-1.913,-1.9112,-1.9088,-1.9067,-1.9037,-1.9032,-1.9034,-1.9044,-1.9057,-1.9049,-1.897,-1.903,-1.9029,-1.9028,-1.9028,-1.9027,-1.9389,-1.9389,-1.9361,-1.9347,-1.9328,-1.9311,-1.9306,-1.928,-1.9267,-1.9244,-1.9221,-1.9208,-1.918,-1.9145,-1.9128,-1.9116,-1.9101,-1.9104,-1.9105,-1.9106,-1.9111,-1.9061,-1.9112,-1.9112,-1.9111,-1.9111,-1.9111,0,-1.9447,-1.9428,-1.9415,-1.9389,-1.9379,-1.9353,-1.9331,-1.9323,-1.9312,-1.929,-1.9275,-1.9257,-1.9241,-1.9207,-1.9187,-1.9185,-1.917,-1.9181,-1.9179,-1.9175,-1.9126,-1.9126,-1.9193,-1.9193,-1.9193,-1.9193,-1.9193,-1.9193,-1.9475,-1.9472,-1.9453,-1.9441,-1.9421,-1.9409,-1.9398,-1.9382,-1.9364,-1.9347,-1.9333,-1.9312,-1.9285,-1.9263,-1.9247,-1.9237,-1.9231,-1.9246,-1.9232,-1.9187,-1.9179,-1.9171,-1.917,-1.9246,-1.9246,-1.9282,-1.9282,-1.9282]},{"header":{"parameterUnit":"m.s-1","parameterCategory":1,"la1":30.2991,"la2":30.254,"lo1":-89.0895,"lo2":-89.0444,"dy":0.0017,"dx":0.0017,"nx":28,"ny":28,"refTime":"2024-07-25T21:00:00:Z","depth":0,"parameterNumber":3,"parameterNumberName":"V-component_of_WINDS"},"data":[0,0,0,0,0,0,0,0,0,0,0,0,0,0,0,0,0,0,0,0,0,0,0,0,0,0,0,0,0,0,0,0,0,0,0,0,0,0,0,0,0,0,0,0,0,0,0,0,0,0,0,0,0,0,0,0,0,0,3.2308,3.2308,0,3.2313,3.2313,3.2313,3.234,3.2341,3.2341,3.2342,3.2345,3.2345,3.2344,0,0,0,0,0,0,0,0,0,0,0,0,0,3.2318,3.2318,3.2308,3.2308,3.2308,3.2313,3.2313,3.2313,3.234,3.2341,3.2341,3.2342,3.2345,3.2345,3.2344,0,0,0,0,0,0,0,0,0,0,0,0,0,3.2317,3.2317,3.2308,3.2322,3.2323,3.2313,3.2313,3.2313,3.234,3.2341,3.2342,3.2343,3.2345,3.2345,3.2344,3.232,0,0,3.2342,3.2341,0,0,0,0,0,0,0,0,3.2317,3.2317,3.232,3.2321,3.2322,3.2327,3.2318,3.2316,3.234,3.2333,3.2342,3.2343,3.2338,3.2338,3.2337,3.232,3.232,3.2342,3.2341,3.2341,3.234,0,0,0,0,0,0,0,3.2317,3.2317,3.231,3.232,3.2321,3.2327,3.2328,3.2318,3.233,3.2334,3.2336,3.2336,3.2339,3.2338,3.2337,3.232,3.2342,3.2341,3.234,3.234,3.2285,3.2284,0,0,0,0,0,0,3.2316,3.2317,3.231,3.231,3.2322,3.2326,3.2327,3.2324,3.233,3.2332,3.2336,3.2338,3.2338,3.2338,3.2337,3.231,3.2341,3.234,3.234,3.2286,3.2285,3.2284,0,0,0,0,0,0,3.2316,3.2315,3.2309,3.2314,3.2314,3.2325,3.2322,3.2324,3.2323,3.2332,3.2334,3.2332,3.2339,3.2338,3.2324,3.231,3.234,3.2339,3.2287,3.2285,3.2284,3.2255,0,0,0,0,0,0,3.2316,3.2315,3.2306,3.2314,3.2313,3.2297,3.2321,3.2323,3.2322,3.2324,3.2329,3.233,3.234,3.2325,3.2324,3.231,3.2338,3.2288,3.2286,3.2285,3.2257,3.2252,3.2248,0,0,0,0,0,3.2316,3.2297,3.2306,3.2305,3.2303,3.2296,3.2296,3.2308,3.232,3.2312,3.2317,3.233,3.2312,3.2324,3.2322,3.2308,3.2289,3.2287,3.2285,3.2259,3.2253,3.2248,0,0,0,0,0,0,3.2287,3.2298,3.2308,3.2291,3.2292,3.2301,3.229,3.2301,3.2299,3.2301,3.2316,3.2316,3.23,3.2303,3.2315,3.2285,3.2303,3.23,3.2284,3.2279,3.2274,3.2274,3.2338,0,0,0,0,0,3.2278,3.2272,3.2283,3.2266,3.2267,3.2278,3.2276,3.2285,3.2287,3.2287,3.2292,3.2293,3.2287,3.2283,3.2279,3.2258,3.2259,3.2247,3.2243,3.2239,3.2236,3.2225,3.222,3.2276,3.2276,3.2276,0,0,3.2261,3.2266,3.2261,3.2261,3.2263,3.2256,3.2278,3.227,3.2264,3.2286,3.2273,3.2276,3.2278,3.2261,3.2253,3.2262,3.2221,3.2236,3.2233,3.2232,3.2222,3.2217,3.2212,3.2274,3.2275,3.2275,0,0,3.2225,3.2229,3.2216,3.2218,3.2221,3.2229,3.2226,3.2233,3.2236,3.2224,3.224,3.2233,3.2224,3.2224,3.2223,3.2188,3.22,3.2187,3.2164,3.2153,3.2148,3.2145,3.2132,3.2127,3.2184,3.2184,3.2184,0,3.2202,3.2192,3.2207,3.2198,3.2197,3.2217,3.2203,3.2204,3.2206,3.2204,3.2215,3.2204,3.2206,3.2189,3.2181,3.2179,3.2176,3.2186,3.2148,3.2144,3.2141,3.2129,3.2124,3.2182,3.2182,3.2183,3.2183,0,3.2164,3.2157,3.2146,3.2148,3.2146,3.2135,3.2147,3.2143,3.2153,3.2159,3.2146,3.215,3.2147,3.2144,3.2153,3.2128,3.2133,3.2146,3.2164,3.2134,3.2122,3.2118,3.218,3.218,3.2181,3.2181,0,0,3.2108,3.212,3.2115,3.2117,3.2122,3.2117,3.2107,3.2104,3.21,3.2101,3.2092,3.2084,3.2096,3.2095,3.2104,3.2094,3.2066,3.2108,3.2108,3.21,3.2038,3.2028,3.2023,3.2074,3.2073,3.2073,3.2038,0,3.2074,3.2057,3.207,3.2051,3.2044,3.2064,3.2054,3.2057,3.2063,3.2058,3.2064,3.2058,3.2074,3.2074,3.2065,3.2071,3.2054,3.2074,3.2065,3.2065,3.2063,3.2017,3.2006,3.1974,3.2034,3.2033,3.2033,0,3.2031,3.203,3.2011,3.2018,3.2016,3.2007,3.2007,3.2002,3.2005,3.201,3.2009,3.2021,3.2011,3.2029,3.2015,3.2028,3.2026,3.2028,3.2027,3.2026,3.2046,3.2014,3.1963,3.1958,3.2026,3.2026,3.2027,0,3.1992,3.1986,3.1974,3.1974,3.1983,3.1976,3.198,3.1984,3.1981,3.1981,3.1979,3.1977,3.1975,3.1973,3.1984,3.1996,3.1967,3.1987,3.1971,3.197,3.1963,3.1963,3.191,3.1962,3.1962,3.1962,3.1963,0,3.1951,3.1938,3.1956,3.1948,3.1934,3.195,3.1935,3.194,3.1943,3.1937,3.1953,3.1946,3.1961,3.1955,3.1964,3.195,3.195,3.1953,3.1955,3.1951,3.195,3.1949,3.1951,3.1961,3.1961,3.1962,3.1962,0,3.1904,3.1916,3.1904,3.1914,3.1916,3.1905,3.1913,3.1905,3.1913,3.1904,3.1903,3.1914,3.1909,3.1919,3.1915,3.1921,3.1901,3.1908,3.1901,3.1902,3.1885,3.1886,3.1829,3.1822,3.1879,3.1878,3.1878,0,3.1877,3.1868,3.1877,3.1874,3.1876,3.1871,3.187,3.1884,3.1881,3.1884,3.1877,3.1873,3.187,3.186,3.1867,3.1864,3.187,3.185,3.1869,3.1866,3.1869,3.1869,3.1868,3.1846,3.1845,3.1844,3.1844,0,3.1828,3.1835,3.1832,3.1831,3.1829,3.1829,3.183,3.1826,3.1842,3.1838,3.1833,3.1831,3.1827,3.1822,3.1821,3.1824,3.1836,3.1838,3.1834,3.1829,3.1825,3.1827,3.1889,3.1839,3.1839,3.184,3.184,3.184,3.179,3.1783,3.1788,3.1784,3.1787,3.1788,3.1781,3.1789,3.1785,3.1783,3.1792,3.1785,3.1788,3.1788,3.1789,3.1783,3.1792,3.1786,3.1785,3.1783,3.178,3.1827,3.1783,3.1783,3.1783,3.1784,3.1784,0,3.1741,3.1746,3.1742,3.1744,3.1741,3.1754,3.1756,3.1753,3.1746,3.1749,3.1746,3.174,3.1736,3.1744,3.1741,3.1735,3.174,3.1733,3.1733,3.1734,3.1772,3.1776,3.1729,3.1729,3.1729,3.1729,3.1729,3.1729,3.1715,3.1703,3.1711,3.17,3.1705,3.1698,3.1698,3.1699,3.1701,3.1694,3.1691,3.1696,3.1701,3.1698,3.1695,3.1697,3.1695,3.1686,3.169,3.1726,3.1731,3.1736,3.174,3.1685,3.1685,3.1652,3.1651,3.1651]}]]